HAZ9841 WSSS-VVTS

Flight info

Callsign HAZ9841
Flight time 1h 43m
Altitude 33000
Route VMR M771 DUDIS L644 CN W9 NIXIV
Aircraft A339/H-SADE1E2E3GHIJ1J3J5M1P2RWXY/LB2D1

Departure

Time 2026-05-06 13:55
Airport Singapore Changi Airport (WSSS)

Arrival

Time 2026-05-06 15:38
Airport Tan Son Nhat International Airport (VVTS)
Time Latitude Longitude Altitude Speed Heading
2026-05-06 13:24 1.37416 103.99290 41 ft 0 kts 112°
2026-05-06 13:46 1.37421 103.99279 41 ft 2 kts 112°
2026-05-06 13:46 1.37427 103.99265 40 ft 2 kts 112°
2026-05-06 13:46 1.37433 103.99252 40 ft 2 kts 112°
2026-05-06 13:47 1.37439 103.99238 39 ft 2 kts 112°
2026-05-06 13:47 1.37445 103.99223 39 ft 2 kts 122°
2026-05-06 13:47 1.37453 103.99212 38 ft 1 kts 127°
2026-05-06 13:47 1.37459 103.99204 38 ft 2 kts 100°
2026-05-06 13:48 1.37456 103.99189 37 ft 2 kts 47°
2026-05-06 13:48 1.37448 103.99183 37 ft 1 kts 20°
2026-05-06 13:48 1.37444 103.99181 37 ft 0 kts 22°
2026-05-06 13:50 1.37447 103.99182 37 ft 0 kts 22°
2026-05-06 13:50 1.37461 103.99188 37 ft 4 kts 23°
2026-05-06 13:50 1.37514 103.99211 37 ft 10 kts 23°
2026-05-06 13:50 1.37595 103.99246 36 ft 14 kts 23°
2026-05-06 13:51 1.37694 103.99288 38 ft 15 kts 23°
2026-05-06 13:51 1.37800 103.99333 39 ft 17 kts 23°
2026-05-06 13:51 1.37914 103.99381 41 ft 18 kts 23°
2026-05-06 13:51 1.38033 103.99431 42 ft 16 kts 18°
2026-05-06 13:52 1.38085 103.99410 41 ft 9 kts 313°
2026-05-06 13:52 1.38123 103.99349 40 ft 11 kts 296°
2026-05-06 13:52 1.38156 103.99276 40 ft 12 kts 294°
2026-05-06 13:52 1.38186 103.99195 39 ft 12 kts 277°
2026-05-06 13:53 1.38151 103.99125 40 ft 11 kts 210°
2026-05-06 13:53 1.38087 103.99092 41 ft 6 kts 203°
2026-05-06 13:53 1.38082 103.99091 41 ft 0 kts 203°
2026-05-06 13:53 1.38073 103.99087 41 ft 10 kts 203°
2026-05-06 13:54 1.37792 103.98968 37 ft 75 kts 204°
2026-05-06 13:54 1.37127 103.98686 39 ft 129 kts 203°
2026-05-06 13:54 1.36147 103.98273 118 ft 165 kts 203°
2026-05-06 13:54 1.35121 103.97805 613 ft 163 kts 203°
2026-05-06 13:55 1.34075 103.97362 1162 ft 162 kts 201°
2026-05-06 13:55 1.33046 103.96939 1651 ft 162 kts 201°
2026-05-06 13:55 1.31964 103.96493 2001 ft 174 kts 201°
2026-05-06 13:55 1.30803 103.96011 2271 ft 187 kts 201°
2026-05-06 13:56 1.29547 103.95484 2532 ft 201 kts 202°
2026-05-06 13:56 1.28216 103.94921 2795 ft 215 kts 202°
2026-05-06 13:56 1.26790 103.94322 3060 ft 231 kts 202°
2026-05-06 13:56 1.25261 103.93719 3342 ft 247 kts 194°
2026-05-06 13:57 1.23473 103.93696 3634 ft 262 kts 162°
2026-05-06 13:57 1.21870 103.94598 4058 ft 271 kts 135°
2026-05-06 13:57 1.20542 103.95927 4715 ft 273 kts 134°
2026-05-06 13:57 1.19186 103.97281 5387 ft 276 kts 134°
2026-05-06 13:58 1.17818 103.98625 6037 ft 280 kts 135°
2026-05-06 13:58 1.16526 104.00089 6674 ft 283 kts 118°
2026-05-06 13:58 1.15989 104.01965 7338 ft 283 kts 90°
2026-05-06 13:58 1.16356 104.03870 8023 ft 284 kts 65°
2026-05-06 13:59 1.17463 104.05486 8664 ft 286 kts 51°
2026-05-06 13:59 1.18721 104.07027 9277 ft 289 kts 51°
2026-05-06 13:59 1.20115 104.08482 9866 ft 293 kts 41°
2026-05-06 13:59 1.21783 104.09692 10430 ft 298 kts 32°
2026-05-06 14:00 1.23628 104.10756 10715 ft 313 kts 30°
2026-05-06 14:00 1.25629 104.11773 10987 ft 328 kts 20°
2026-05-06 14:00 1.27931 104.12117 11234 ft 345 kts 358°
2026-05-06 14:00 1.30318 104.11539 11486 ft 362 kts 335°
2026-05-06 14:01 1.32421 104.10053 11918 ft 371 kts 319°
2026-05-06 14:01 1.34361 104.08346 12503 ft 374 kts 320°
2026-05-06 14:01 1.36335 104.06650 13069 ft 377 kts 321°
2026-05-06 14:01 1.38360 104.04929 13630 ft 380 kts 321°
2026-05-06 14:02 1.40454 104.03289 14164 ft 382 kts 327°
2026-05-06 14:02 1.42766 104.01969 14701 ft 383 kts 336°
2026-05-06 14:02 1.45238 104.00996 15233 ft 385 kts 343°
2026-05-06 14:02 1.47807 104.00155 15763 ft 387 kts 344°
2026-05-06 14:03 1.50397 103.99332 16278 ft 390 kts 344°
2026-05-06 14:03 1.53002 103.98504 16795 ft 393 kts 344°
2026-05-06 14:03 1.55596 103.97673 17295 ft 396 kts 344°
2026-05-06 14:03 1.58237 103.96823 17779 ft 399 kts 344°
2026-05-06 14:04 1.60904 103.95961 18248 ft 403 kts 344°
2026-05-06 14:04 1.63606 103.95087 18718 ft 406 kts 344°
2026-05-06 14:04 1.66310 103.94212 19164 ft 410 kts 344°
2026-05-06 14:04 1.69044 103.93326 19598 ft 413 kts 344°
2026-05-06 14:05 1.71804 103.92433 20029 ft 416 kts 345°
2026-05-06 14:05 1.74600 103.91678 20440 ft 418 kts 349°
2026-05-06 14:05 1.77488 103.91153 20853 ft 420 kts 354°
2026-05-06 14:05 1.80411 103.90866 21249 ft 421 kts 358°
2026-05-06 14:06 1.83335 103.90672 21630 ft 424 kts 359°
2026-05-06 14:06 1.86328 103.90488 22073 ft 431 kts 359°
2026-05-06 14:06 1.89318 103.90305 22685 ft 434 kts 359°
2026-05-06 14:06 1.92361 103.90117 23296 ft 437 kts 359°
2026-05-06 14:07 1.95440 103.89925 23887 ft 440 kts 359°
2026-05-06 14:07 1.98506 103.89731 24443 ft 444 kts 359°
2026-05-06 14:07 2.01631 103.89533 24990 ft 448 kts 359°
2026-05-06 14:07 2.04724 103.89338 25518 ft 452 kts 359°
2026-05-06 14:08 2.07914 103.89135 26038 ft 456 kts 358°
2026-05-06 14:08 2.11094 103.88933 26540 ft 459 kts 359°
2026-05-06 14:08 2.14305 103.88728 27033 ft 463 kts 358°
2026-05-06 14:08 2.17555 103.88522 27516 ft 466 kts 358°
2026-05-06 14:09 2.20820 103.88313 27977 ft 470 kts 358°
2026-05-06 14:09 2.24088 103.88105 28426 ft 473 kts 358°
2026-05-06 14:09 2.27409 103.87894 28890 ft 476 kts 358°
2026-05-06 14:09 2.30743 103.87682 29346 ft 479 kts 358°
2026-05-06 14:10 2.34056 103.87644 29774 ft 480 kts
2026-05-06 14:10 2.37365 103.88068 30289 ft 479 kts 13°
2026-05-06 14:10 2.40567 103.88931 30945 ft 474 kts 20°
2026-05-06 14:10 2.43617 103.90202 31543 ft 470 kts 28°
2026-05-06 14:11 2.46460 103.91810 31845 ft 468 kts 32°
2026-05-06 14:11 2.49269 103.93549 31868 ft 467 kts 33°
2026-05-06 14:11 2.54793 103.97025 31873 ft 466 kts 33°
2026-05-06 14:12 2.60297 104.00473 32241 ft 469 kts 33°
2026-05-06 14:12 2.63054 104.02196 32715 ft 466 kts 33°
2026-05-06 14:12 2.65818 104.03919 33193 ft 464 kts 33°
2026-05-06 14:13 2.68546 104.05617 33574 ft 463 kts 33°
2026-05-06 14:13 2.71330 104.07352 33878 ft 465 kts 33°
2026-05-06 14:13 2.74056 104.09049 34182 ft 466 kts 33°
2026-05-06 14:13 2.76823 104.10772 34519 ft 466 kts 33°
2026-05-06 14:14 2.79589 104.12495 34845 ft 467 kts 33°
2026-05-06 14:14 2.82357 104.14219 34874 ft 467 kts 33°
2026-05-06 14:14 2.87879 104.17659 34878 ft 467 kts 33°
2026-05-06 14:15 2.93408 104.21105 34883 ft 469 kts 33°
2026-05-06 14:15 2.99001 104.24595 34881 ft 482 kts 33°
2026-05-06 14:16 3.04790 104.28204 34883 ft 493 kts 33°
2026-05-06 14:16 3.10624 104.31885 34882 ft 495 kts 33°
2026-05-06 14:17 3.16479 104.35577 34883 ft 495 kts 33°
2026-05-06 14:17 3.22363 104.39217 34882 ft 495 kts 33°
2026-05-06 14:18 3.28265 104.42874 34882 ft 495 kts 33°
2026-05-06 14:18 3.34105 104.46503 34882 ft 495 kts 33°
2026-05-06 14:19 3.39974 104.50153 34883 ft 496 kts 33°
2026-05-06 14:19 3.45862 104.53809 34882 ft 496 kts 33°
2026-05-06 14:20 3.51721 104.57442 34883 ft 496 kts 33°
2026-05-06 14:20 3.57600 104.61093 34882 ft 496 kts 33°
2026-05-06 14:21 3.63455 104.64733 34882 ft 496 kts 33°
2026-05-06 14:21 3.69326 104.68386 34882 ft 496 kts 33°
2026-05-06 14:22 3.75210 104.72050 34881 ft 497 kts 33°
2026-05-06 14:22 3.81083 104.75705 34874 ft 497 kts 33°
2026-05-06 14:23 3.86959 104.79353 34864 ft 498 kts 33°
2026-05-06 14:23 3.92866 104.83024 34862 ft 497 kts 33°
2026-05-06 14:24 3.98720 104.86667 34861 ft 496 kts 33°
2026-05-06 14:24 4.04608 104.90334 34868 ft 497 kts 33°
2026-05-06 14:25 4.10498 104.94006 34879 ft 497 kts 33°
2026-05-06 14:25 4.16379 104.97672 34881 ft 498 kts 33°
2026-05-06 14:26 4.22277 105.01345 34882 ft 498 kts 33°
2026-05-06 14:26 4.28184 105.05004 34882 ft 498 kts 33°
2026-05-06 14:27 4.34126 105.08691 34883 ft 498 kts 33°
2026-05-06 14:27 4.40025 105.12357 34881 ft 497 kts 33°
2026-05-06 14:28 4.45937 105.16032 34882 ft 497 kts 33°
2026-05-06 14:28 4.51853 105.19712 34882 ft 498 kts 33°
2026-05-06 14:29 4.57733 105.23370 34880 ft 498 kts 33°
2026-05-06 14:29 4.63642 105.27046 34881 ft 498 kts 33°
2026-05-06 14:30 4.69552 105.30727 34882 ft 498 kts 33°
2026-05-06 14:30 4.75467 105.34412 34882 ft 498 kts 33°
2026-05-06 14:31 4.81347 105.38074 34882 ft 498 kts 34°
2026-05-06 14:31 4.87209 105.41850 34884 ft 498 kts 34°
2026-05-06 14:32 4.93001 105.45630 34882 ft 498 kts 34°
2026-05-06 14:32 4.98856 105.49447 34884 ft 498 kts 34°
2026-05-06 14:33 5.04663 105.53230 34883 ft 498 kts 34°
2026-05-06 14:33 5.10456 105.57004 34881 ft 498 kts 34°
2026-05-06 14:34 5.16323 105.60826 34881 ft 498 kts 34°
2026-05-06 14:34 5.22140 105.64616 34882 ft 498 kts 34°
2026-05-06 14:35 5.27995 105.68431 34881 ft 499 kts 34°
2026-05-06 14:35 5.33819 105.72227 34881 ft 498 kts 34°
2026-05-06 14:36 5.39661 105.76037 34882 ft 498 kts 34°
2026-05-06 14:36 5.45484 105.79833 34881 ft 498 kts 34°
2026-05-06 14:37 5.51299 105.83625 34882 ft 498 kts 34°
2026-05-06 14:37 5.57157 105.87447 34887 ft 498 kts 34°
2026-05-06 14:38 5.62970 105.91241 34892 ft 498 kts 34°
2026-05-06 14:38 5.68802 105.95047 34895 ft 498 kts 34°
2026-05-06 14:39 5.74631 105.98853 34898 ft 498 kts 34°
2026-05-06 14:39 5.80461 106.02660 34897 ft 498 kts 34°
2026-05-06 14:40 5.86319 106.06488 34900 ft 499 kts 34°
2026-05-06 14:40 5.92134 106.10287 34895 ft 499 kts 34°
2026-05-06 14:41 5.97989 106.14112 34886 ft 498 kts 34°
2026-05-06 14:41 6.03828 106.17930 34883 ft 498 kts 34°
2026-05-06 14:42 6.09620 106.21718 34882 ft 498 kts 34°
2026-05-06 14:42 6.15468 106.25543 34881 ft 498 kts 34°
2026-05-06 14:43 6.21283 106.29348 34882 ft 499 kts 34°
2026-05-06 14:43 6.27146 106.33185 34882 ft 498 kts 34°
2026-05-06 14:44 6.32949 106.36983 34881 ft 498 kts 34°
2026-05-06 14:45 6.41714 106.42725 34882 ft 499 kts 34°
2026-05-06 14:45 6.47526 106.46533 34881 ft 498 kts 34°
2026-05-06 14:46 6.53361 106.50356 34882 ft 498 kts 34°
2026-05-06 14:46 6.59178 106.54170 34882 ft 499 kts 34°
2026-05-06 14:47 6.65011 106.57994 34881 ft 499 kts 34°
2026-05-06 14:47 6.70871 106.61840 34881 ft 498 kts 34°
2026-05-06 14:48 6.76686 106.65658 34882 ft 498 kts 34°
2026-05-06 14:48 6.82468 106.69456 34882 ft 498 kts 34°
2026-05-06 14:49 6.88300 106.73288 34881 ft 499 kts 34°
2026-05-06 14:49 6.94399 106.76807 34880 ft 502 kts 25°
2026-05-06 14:50 7.01039 106.79045 34881 ft 504 kts 14°
2026-05-06 14:50 7.08046 106.79902 34882 ft 506 kts
2026-05-06 14:51 7.15124 106.79452 34883 ft 507 kts 355°
2026-05-06 14:51 7.22146 106.78691 34886 ft 507 kts 355°
2026-05-06 14:52 7.29204 106.77925 34895 ft 506 kts 355°
2026-05-06 14:52 7.36206 106.77175 34901 ft 506 kts 355°
2026-05-06 14:53 7.43269 106.76427 34902 ft 507 kts 355°
2026-05-06 14:53 7.50313 106.75680 34903 ft 507 kts 355°
2026-05-06 14:54 7.57312 106.74940 34903 ft 506 kts 355°
2026-05-06 14:54 7.64338 106.74197 34903 ft 505 kts 355°
2026-05-06 14:55 7.71351 106.73454 34902 ft 505 kts 355°
2026-05-06 14:55 7.78382 106.72708 34901 ft 505 kts 355°
2026-05-06 14:56 7.85387 106.71968 34899 ft 504 kts 355°
2026-05-06 14:56 7.88877 106.71597 34892 ft 491 kts 355°
2026-05-06 14:56 7.92220 106.71242 34844 ft 478 kts 355°
2026-05-06 14:56 7.95518 106.70893 34492 ft 477 kts 355°
2026-05-06 14:57 7.98846 106.70540 34114 ft 476 kts 355°
2026-05-06 14:57 8.02102 106.70195 33749 ft 474 kts 355°
2026-05-06 14:57 8.05390 106.69848 33423 ft 473 kts 355°
2026-05-06 14:57 8.08677 106.69498 33110 ft 475 kts 355°
2026-05-06 14:58 8.11970 106.69149 32796 ft 476 kts 355°
2026-05-06 14:58 8.15310 106.68796 32485 ft 477 kts 355°
2026-05-06 14:58 8.18599 106.68446 32207 ft 478 kts 355°
2026-05-06 14:58 8.21912 106.68095 31929 ft 479 kts 355°
2026-05-06 14:59 8.25230 106.67743 31648 ft 479 kts 355°
2026-05-06 14:59 8.28552 106.67390 31368 ft 479 kts 355°
2026-05-06 14:59 8.31902 106.67034 31089 ft 480 kts 355°
2026-05-06 14:59 8.35244 106.66679 30810 ft 482 kts 355°
2026-05-06 15:00 8.38588 106.66324 30531 ft 483 kts 355°
2026-05-06 15:00 8.41973 106.65965 30252 ft 483 kts 355°
2026-05-06 15:00 8.45303 106.65610 29978 ft 484 kts 355°
2026-05-06 15:00 8.48656 106.65254 29699 ft 482 kts 355°
2026-05-06 15:01 8.52008 106.64897 29424 ft 480 kts 355°
2026-05-06 15:01 8.55348 106.64542 29148 ft 478 kts 355°
2026-05-06 15:01 8.58639 106.64192 28874 ft 475 kts 355°
2026-05-06 15:01 8.61914 106.63845 28602 ft 473 kts 355°
2026-05-06 15:02 8.65194 106.63496 28330 ft 470 kts 355°
2026-05-06 15:02 8.68456 106.63149 28065 ft 469 kts 355°
2026-05-06 15:02 8.71691 106.62834 27799 ft 467 kts 356°
2026-05-06 15:02 8.74948 106.62676 27533 ft 465 kts 360°
2026-05-06 15:03 8.78207 106.62672 27265 ft 464 kts
2026-05-06 15:03 8.81402 106.62704 26999 ft 462 kts
2026-05-06 15:03 8.84633 106.62746 26731 ft 460 kts
2026-05-06 15:03 8.87823 106.62785 26468 ft 458 kts
2026-05-06 15:04 8.91045 106.62824 26199 ft 457 kts
2026-05-06 15:04 8.94209 106.62862 25933 ft 455 kts
2026-05-06 15:04 8.97395 106.62899 25664 ft 453 kts
2026-05-06 15:04 9.00561 106.62936 25396 ft 452 kts
2026-05-06 15:05 9.03702 106.62972 25129 ft 450 kts
2026-05-06 15:05 9.06844 106.63007 24862 ft 448 kts
2026-05-06 15:05 9.09951 106.63042 24597 ft 447 kts
2026-05-06 15:05 9.13080 106.63078 24328 ft 445 kts
2026-05-06 15:06 9.16178 106.63113 24062 ft 444 kts
2026-05-06 15:06 9.19301 106.63149 23793 ft 442 kts
2026-05-06 15:06 9.22374 106.63185 23528 ft 440 kts
2026-05-06 15:06 9.25435 106.63220 23265 ft 439 kts
2026-05-06 15:07 9.28500 106.63255 23002 ft 437 kts
2026-05-06 15:07 9.31555 106.63290 22740 ft 436 kts
2026-05-06 15:07 9.34590 106.63326 22478 ft 434 kts
2026-05-06 15:07 9.37614 106.63381 22216 ft 433 kts
2026-05-06 15:08 9.40625 106.63606 21964 ft 430 kts
2026-05-06 15:08 9.43568 106.64008 21718 ft 428 kts
2026-05-06 15:08 9.46511 106.64458 21469 ft 426 kts 10°
2026-05-06 15:08 9.49449 106.64917 21219 ft 424 kts 10°
2026-05-06 15:09 9.52394 106.65377 20967 ft 421 kts 10°
2026-05-06 15:09 9.55281 106.65827 20717 ft 419 kts 10°
2026-05-06 15:09 9.58158 106.66274 20467 ft 417 kts 10°
2026-05-06 15:09 9.61031 106.66721 20216 ft 415 kts 10°
2026-05-06 15:10 9.63912 106.67168 19961 ft 414 kts 10°
2026-05-06 15:10 9.66736 106.67605 19712 ft 412 kts 11°
2026-05-06 15:10 9.69571 106.68045 19460 ft 409 kts 10°
2026-05-06 15:10 9.72384 106.68481 19209 ft 407 kts 10°
2026-05-06 15:11 9.75209 106.68919 18953 ft 405 kts 11°
2026-05-06 15:11 9.77995 106.69351 18699 ft 403 kts 10°
2026-05-06 15:11 9.80763 106.69781 18448 ft 401 kts 10°
2026-05-06 15:11 9.83534 106.70211 18193 ft 399 kts 10°
2026-05-06 15:12 9.86295 106.70640 17938 ft 397 kts 10°
2026-05-06 15:12 9.89026 106.71062 17683 ft 395 kts 10°
2026-05-06 15:12 9.91721 106.71481 17431 ft 393 kts 10°
2026-05-06 15:12 9.94451 106.71904 17173 ft 392 kts 10°
2026-05-06 15:13 9.97166 106.72324 16916 ft 390 kts 11°
2026-05-06 15:13 9.99846 106.72741 16664 ft 389 kts 11°
2026-05-06 15:13 10.02530 106.73160 16403 ft 387 kts 11°
2026-05-06 15:13 10.05207 106.73577 16143 ft 385 kts 10°
2026-05-06 15:14 10.07832 106.73984 15891 ft 382 kts 11°
2026-05-06 15:14 10.10502 106.74400 15631 ft 380 kts 10°
2026-05-06 15:14 10.13118 106.74809 15373 ft 377 kts 11°
2026-05-06 15:14 10.15658 106.75350 15114 ft 370 kts 16°
2026-05-06 15:15 10.18128 106.76047 14857 ft 363 kts 17°
2026-05-06 15:15 10.20562 106.76765 14596 ft 357 kts 18°
2026-05-06 15:15 10.22919 106.77464 14342 ft 352 kts 18°
2026-05-06 15:15 10.25269 106.78161 14082 ft 346 kts 18°
2026-05-06 15:16 10.27575 106.78844 13821 ft 341 kts 18°
2026-05-06 15:16 10.29845 106.79516 13565 ft 336 kts 18°
2026-05-06 15:16 10.32086 106.80180 13305 ft 332 kts 18°
2026-05-06 15:16 10.34289 106.80833 13047 ft 328 kts 18°
2026-05-06 15:17 10.36467 106.81477 12791 ft 324 kts 18°
2026-05-06 15:17 10.38616 106.82113 12533 ft 320 kts 18°
2026-05-06 15:17 10.40749 106.82742 12274 ft 316 kts 18°
2026-05-06 15:17 10.42868 106.83369 12015 ft 313 kts 18°
2026-05-06 15:18 10.44932 106.83979 11760 ft 310 kts 18°
2026-05-06 15:18 10.46983 106.84685 11484 ft 305 kts 30°
2026-05-06 15:18 10.48511 106.86111 11207 ft 299 kts 60°
2026-05-06 15:18 10.49132 106.88092 10959 ft 295 kts 82°
2026-05-06 15:19 10.49375 106.90141 10706 ft 293 kts 81°
2026-05-06 15:19 10.49693 106.92172 10445 ft 291 kts 79°
2026-05-06 15:19 10.50101 106.94198 10184 ft 288 kts 77°
2026-05-06 15:19 10.50547 106.96157 9930 ft 286 kts 76°
2026-05-06 15:20 10.51096 106.98092 9667 ft 284 kts 70°
2026-05-06 15:20 10.51801 106.99964 9405 ft 282 kts 68°
2026-05-06 15:20 10.52527 107.01822 9147 ft 281 kts 68°
2026-05-06 15:20 10.53246 107.03657 8893 ft 279 kts 68°
2026-05-06 15:21 10.53960 107.05482 8627 ft 278 kts 68°
2026-05-06 15:21 10.54674 107.07310 8365 ft 276 kts 68°
2026-05-06 15:21 10.55384 107.09120 8106 ft 275 kts 65°
2026-05-06 15:21 10.56341 107.10776 7836 ft 273 kts 52°
2026-05-06 15:22 10.57578 107.12214 7560 ft 266 kts 48°
2026-05-06 15:22 10.58830 107.13581 7300 ft 260 kts 47°
2026-05-06 15:22 10.60040 107.14899 7039 ft 254 kts 47°
2026-05-06 15:22 10.61228 107.16200 6779 ft 249 kts 47°
2026-05-06 15:23 10.62407 107.17497 6514 ft 244 kts 47°
2026-05-06 15:23 10.63548 107.18755 6251 ft 240 kts 47°
2026-05-06 15:23 10.64714 107.19922 5990 ft 236 kts 39°
2026-05-06 15:23 10.66068 107.20858 5730 ft 233 kts 30°
2026-05-06 15:24 10.67489 107.21639 5481 ft 230 kts 29°
2026-05-06 15:24 10.68907 107.22393 5219 ft 229 kts 29°
2026-05-06 15:24 10.70307 107.23138 4960 ft 227 kts 30°
2026-05-06 15:24 10.71700 107.23882 4699 ft 225 kts 29°
2026-05-06 15:25 10.73079 107.24621 4437 ft 223 kts 29°
2026-05-06 15:25 10.74469 107.25333 4172 ft 221 kts 25°
2026-05-06 15:25 10.75948 107.25841 3905 ft 221 kts 16°
2026-05-06 15:25 10.77456 107.26145 3645 ft 221 kts 13°
2026-05-06 15:26 10.78969 107.26408 3383 ft 220 kts 13°
2026-05-06 15:26 10.80486 107.26670 3118 ft 219 kts 12°
2026-05-06 15:26 10.81990 107.26929 2854 ft 218 kts 13°
2026-05-06 15:26 10.83511 107.27132 2579 ft 220 kts
2026-05-06 15:27 10.85011 107.26711 2307 ft 228 kts 332°
2026-05-06 15:27 10.86168 107.25622 2047 ft 233 kts 304°
2026-05-06 15:27 10.86715 107.24075 1854 ft 232 kts 274°
2026-05-06 15:27 10.86755 107.22480 1842 ft 219 kts 270°
2026-05-06 15:28 10.86739 107.20970 1830 ft 211 kts 269°
2026-05-06 15:28 10.86725 107.19480 1844 ft 212 kts 270°
2026-05-06 15:28 10.86723 107.17960 1838 ft 212 kts 270°
2026-05-06 15:28 10.86731 107.16473 1844 ft 212 kts 270°
2026-05-06 15:29 10.86744 107.14962 1839 ft 212 kts 270°
2026-05-06 15:29 10.86760 107.13459 1835 ft 212 kts 270°
2026-05-06 15:29 10.86777 107.11960 1834 ft 212 kts 270°
2026-05-06 15:29 10.86794 107.10464 1832 ft 212 kts 270°
2026-05-06 15:30 10.86811 107.08965 1831 ft 213 kts 270°
2026-05-06 15:30 10.86830 107.07443 1828 ft 213 kts 270°
2026-05-06 15:30 10.86848 107.05938 1829 ft 213 kts 270°
2026-05-06 15:30 10.86866 107.04421 1826 ft 213 kts 270°
2026-05-06 15:31 10.86883 107.02924 1827 ft 213 kts 270°
2026-05-06 15:31 10.86903 107.01424 1827 ft 213 kts 270°
2026-05-06 15:31 10.86921 106.99905 1822 ft 213 kts 270°
2026-05-06 15:32 10.86956 106.96896 1819 ft 212 kts 270°
2026-05-06 15:32 10.86973 106.95393 1819 ft 213 kts 270°
2026-05-06 15:32 10.86990 106.93906 1816 ft 213 kts 270°
2026-05-06 15:32 10.87008 106.92387 1814 ft 213 kts 270°
2026-05-06 15:33 10.87031 106.90876 1808 ft 213 kts 273°
2026-05-06 15:33 10.87190 106.89366 1806 ft 213 kts 279°
2026-05-06 15:33 10.87429 106.87882 1803 ft 213 kts 280°
2026-05-06 15:33 10.87680 106.86399 1804 ft 213 kts 280°
2026-05-06 15:34 10.87932 106.84906 1802 ft 213 kts 279°
2026-05-06 15:34 10.88175 106.83434 1803 ft 213 kts 279°
2026-05-06 15:34 10.88197 106.81924 1799 ft 210 kts 259°
2026-05-06 15:34 10.87855 106.80489 1809 ft 205 kts 249°
2026-05-06 15:35 10.87384 106.79183 1811 ft 192 kts 245°
2026-05-06 15:35 10.86901 106.77964 1789 ft 177 kts 244°
2026-05-06 15:35 10.86452 106.76823 1783 ft 170 kts 245°
2026-05-06 15:35 10.86024 106.75710 1793 ft 169 kts 245°
2026-05-06 15:36 10.85600 106.74587 1657 ft 169 kts 245°
2026-05-06 15:36 10.85186 106.73483 1453 ft 168 kts 245°
2026-05-06 15:36 10.84766 106.72362 1242 ft 166 kts 245°
2026-05-06 15:36 10.84357 106.71277 1033 ft 164 kts 246°
2026-05-06 15:37 10.83951 106.70208 828 ft 162 kts 246°
2026-05-06 15:37 10.83546 106.69134 623 ft 160 kts 247°
2026-05-06 15:37 10.83148 106.68085 420 ft 158 kts 246°
2026-05-06 15:37 10.82755 106.67049 213 ft 156 kts 248°
2026-05-06 15:38 10.82371 106.66021 41 ft 151 kts 248°
2026-05-06 15:38 10.82075 106.65228 38 ft 79 kts 246°
2026-05-06 15:38 10.81954 106.64909 37 ft 38 kts 248°
2026-05-06 15:38 10.81834 106.64682 37 ft 30 kts 227°
2026-05-06 15:39 10.81752 106.64601 36 ft 2 kts 221°
2026-05-06 15:39 10.81752 106.64600 36 ft 0 kts 221°
2026-05-06 15:40 10.81670 106.64526 34 ft 20 kts 224°
2026-05-06 15:40 10.81586 106.64405 34 ft 21 kts 245°
2026-05-06 15:40 10.81485 106.64319 34 ft 15 kts 172°
2026-05-06 15:41 10.81461 106.64324 34 ft 0 kts 163°
2026-05-06 15:41 10.81448 106.64329 34 ft 9 kts 162°
2026-05-06 15:41 10.81337 106.64368 34 ft 14 kts 159°
2026-05-06 15:41 10.81251 106.64423 34 ft 14 kts 124°
2026-05-06 15:42 10.81219 106.64520 34 ft 14 kts 100°
2026-05-06 15:42 10.81213 106.64623 34 ft 14 kts 84°
2026-05-06 15:42 10.81241 106.64724 34 ft 16 kts 70°
2026-05-06 15:42 10.81291 106.64861 34 ft 18 kts 70°
2026-05-06 15:43 10.81291 106.64896 34 ft 2 kts 116°
2026-05-06 15:43 10.81273 106.64923 34 ft 4 kts 135°
2026-05-06 15:43 10.81223 106.64967 34 ft 14 kts 116°
2026-05-06 15:43 10.81237 106.65096 35 ft 21 kts 69°
2026-05-06 15:44 10.81289 106.65242 36 ft 13 kts 69°
2026-05-06 15:44 10.81302 106.65276 36 ft 4 kts 69°
2026-05-06 15:44 10.81376 106.65472 39 ft 54 kts 69°
2026-05-06 15:44 10.81482 106.65750 37 ft 22 kts 60°
2026-05-06 15:45 10.81544 106.65802 37 ft 6 kts 51°
2026-05-06 15:45 10.81559 106.65846 37 ft 5 kts 83°
2026-05-06 15:45 10.81560 106.65864 37 ft 3 kts 91°
2026-05-06 15:45 10.81559 106.65885 37 ft 0 kts 93°